Location: The Saddle
(36.8333°N, 80.3417°W)
Time: 04:27:07
(UTC-04:00)

Tiros 1 - Pass Details

Date: 26 January 2022
Orbit: 630 x 663 km, 48.4° (Epoch: 29 May)

Event Time Altitude Azimuth Distance (km) Brightness Sun altitude
Exits shadow 05:54:22 29° 235° (SW) 1,193 8.1 -18.8°
Maximum altitude 05:54:44 29° 226° (SW) 1,182 8.2 -18.7°
Drops below altitude 10° 05:58:45 10° 166° (SSE) 2,022 10.0 -17.9°
Sets 06:01:17 0° 155° (SSE) 2,921 11.0 -17.4°
